| time (UTC) | temp C | wind direction | speed KPH | gust KPH | rain 1hr cm | rain 24hr cm | rain mn cm | humidity % | barometer mb |
| 20260505152513 | 15 | 42 | 3.2 | 17.7 | 0.00 | 0.00 | 0.00 | 66 | 1011.0 |
| 20260505152013 | 15 | 51 | 3.2 | 12.9 | 0.00 | 0.00 | 0.00 | 65 | 1011.0 |
| 20260505151512 | 15 | 11 | 4.8 | 12.9 | 0.00 | 0.00 | 0.00 | 64 | 1011.0 |
| 20260505151012 | 15 | 63 | 9.7 | 16.1 | 0.00 | 0.00 | 0.00 | 66 | 1011.1 |
| 20260505150512 | 15 | 32 | 6.4 | 17.7 | 0.00 | 0.00 | 0.00 | 66 | 1011.1 |
| 20260505140513 | 15 | 5 | 14.5 | 19.3 | 0.00 | 0.00 | 0.00 | 66 | 1011.4 |
| 20260505125012 | 15 | 46 | 11.3 | 17.7 | 0.00 | 0.00 | 0.00 | 69 | 1011.7 |
| 20260505124012 | 15 | 35 | 6.4 | 17.7 | 0.00 | 0.00 | 0.00 | 69 | 1011.6 |
| 20260505123512 | 15 | 53 | 16.1 | 17.7 | 0.00 | 0.00 | 0.00 | 69 | 1011.7 |
| 20260505123012 | 15 | 22 | 6.4 | 16.1 | 0.00 | 0.00 | 0.00 | 71 | 1011.6 |
| 20260505121513 | 14 | 41 | 9.7 | 14.5 | 0.00 | 0.00 | 0.00 | 71 | 1011.7 |
| 20260505121013 | 14 | 55 | 4.8 | 14.5 | 0.00 | 0.00 | 0.00 | 69 | 1011.7 |
| 20260505120513 | 14 | 360 | 12.9 | 14.5 | 0.00 | 0.00 | 0.00 | 69 | 1011.7 |
| 20260505120012 | 15 | 82 | 3.2 | 22.5 | 0.00 | 0.00 | 0.00 | 69 | 1011.7 |
| 20260505115512 | 15 | 355 | 6.4 | 25.7 | 0.00 | 0.00 | 0.00 | 68 | 1011.7 |
| 20260505115012 | 15 | 66 | 14.5 | 25.7 | 0.00 | 0.00 | 0.00 | 68 | 1011.7 |
| 20260505114512 | 15 | 30 | 12.9 | 22.5 | 0.00 | 0.00 | 0.00 | 67 | 1011.7 |
| 20260505114012 | 15 | 36 | 0.0 | 20.9 | 0.00 | 0.00 | 0.00 | 69 | 1011.7 |
| 20260505113512 | 15 | 28 | 17.7 | 17.7 | 0.00 | 0.00 | 0.00 | 69 | 1011.8 |
| 20260505113012 | 15 | 360 | 4.8 | 19.3 | 0.00 | 0.00 | 0.00 | 69 | 1011.8 |
| 20260505112514 | 14 | 36 | 11.3 | 20.9 | 0.00 | 0.00 | 0.00 | 70 | 1011.9 |
| 20260505112012 | 14 | 11 | 6.4 | 20.9 | 0.00 | 0.00 | 0.00 | 70 | 1011.8 |
| 20260505111512 | 15 | 25 | 12.9 | 20.9 | 0.00 | 0.00 | 0.00 | 71 | 1011.9 |
| 20260505111012 | 14 | 5 | 9.7 | 27.4 | 0.00 | 0.00 | 0.00 | 73 | 1012.0 |
| 20260505110513 | 13 | 75 | 12.9 | 27.4 | 0.00 | 0.00 | 0.00 | 73 | 1012.0 |
| 20260505102012 | 13 | 48 | 9.7 | 17.7 | 0.00 | 0.00 | 0.00 | 76 | 1012.4 |
| 20260505101512 | 13 | 61 | 8.0 | 14.5 | 0.00 | 0.00 | 0.00 | 77 | 1012.3 |
| 20260505101013 | 13 | 294 | 6.4 | 16.1 | 0.00 | 0.00 | 0.00 | 77 | 1012.3 |
| 20260505100513 | 12 | 25 | 6.4 | 16.1 | 0.00 | 0.00 | 0.00 | 77 | 1012.4 |
| 20260505100012 | 12 | 350 | 8.0 | 16.1 | 0.00 | 0.00 | 0.00 | 78 | 1012.3 |
| 20260505095012 | 13 | 58 | 8.0 | 16.1 | 0.00 | 0.00 | 0.00 | 76 | 1012.4 |
| 20260505094512 | 13 | 10 | 3.2 | 17.7 | 0.00 | 0.00 | 0.00 | 76 | 1012.5 |
| 20260505094013 | 13 | 26 | 6.4 | 17.7 | 0.00 | 0.00 | 0.00 | 75 | 1012.5 |
| 20260505093513 | 13 | 32 | 3.2 | 17.7 | 0.00 | 0.00 | 0.00 | 77 | 1012.5 |
| 20260505093012 | 12 | 22 | 9.7 | 17.7 | 0.00 | 0.00 | 0.00 | 79 | 1012.4 |
| 20260505092512 | 12 | 5 | 12.9 | 17.7 | 0.00 | 0.00 | 0.00 | 78 | 1012.4 |
| 20260505092012 | 12 | 13 | 8.0 | 17.7 | 0.00 | 0.00 | 0.00 | 79 | 1012.4 |
| 20260505091512 | 12 | 38 | 6.4 | 20.9 | 0.00 | 0.00 | 0.00 | 79 | 1012.4 |
| 20260505091012 | 12 | 42 | 4.8 | 20.9 | 0.00 | 0.00 | 0.00 | 79 | 1012.5 |
| 20260505090512 | 12 | 43 | 6.4 | 17.7 | 0.00 | 0.00 | 0.00 | 80 | 1012.5 |
| 20260505090012 | 11 | 27 | 16.1 | 19.3 | 0.00 | 0.00 | 0.00 | 81 | 1012.5 |
| 20260505085012 | 11 | 336 | 12.9 | 17.7 | 0.00 | 0.00 | 0.00 | 82 | 1012.5 |
| 20260505084513 | 11 | 332 | 6.4 | 17.7 | 0.00 | 0.00 | 0.00 | 83 | 1012.5 |
| 20260505083012 | 11 | 25 | 12.9 | 14.5 | 0.00 | 0.00 | 0.00 | 85 | 1012.6 |
| 20260505082512 | 11 | 5 | 9.7 | 17.7 | 0.00 | 0.00 | 0.00 | 85 | 1012.7 |
| 20260505082012 | 11 | 9 | 4.8 | 19.3 | 0.00 | 0.00 | 0.00 | 84 | 1012.8 |
| 20260505081012 | 11 | 20 | 3.2 | 14.5 | 0.00 | 0.00 | 0.00 | 85 | 1012.7 |
| 20260505080512 | 11 | 19 | 11.3 | 14.5 | 0.00 | 0.00 | 0.00 | 86 | 1012.7 |
| 20260505080012 | 11 | 14 | 11.3 | 14.5 | 0.00 | 0.00 | 0.00 | 87 | 1012.6 |
| 20260505075512 | 11 | 30 | 6.4 | 17.7 | 0.00 | 0.00 | 0.00 | 87 | 1012.6 |
| 20260505075012 | 11 | 32 | 8.0 | 17.7 | 0.00 | 0.00 | 0.00 | 87 | 1012.6 |
| 20260505074512 | 11 | 18 | 12.9 | 16.1 | 0.00 | 0.00 | 0.00 | 88 | 1012.6 |
| 20260505073512 | 10 | 11 | 11.3 | 20.9 | 0.00 | 0.00 | 0.00 | 89 | 1012.7 |
| 20260505073012 | 10 | 22 | 9.7 | 17.7 | 0.00 | 0.00 | 0.00 | 89 | 1012.7 |
| 20260505072512 | 10 | 43 | 8.0 | 16.1 | 0.00 | 0.00 | 0.00 | 90 | 1012.7 |
| 20260505071512 | 10 | 54 | 3.2 | 17.7 | 0.00 | 0.00 | 0.00 | 91 | 1012.7 |
| 20260505071012 | 10 | 19 | 3.2 | 17.7 | 0.00 | 0.00 | 0.00 | 92 | 1012.6 |
| 20260505070512 | 10 | 34 | 12.9 | 20.9 | 0.00 | 0.00 | 0.00 | 92 | 1012.6 |
| 20260505065512 | 10 | 45 | 11.3 | 20.9 | 0.00 | 0.00 | 0.00 | 92 | 1012.7 |
| 20260505065014 | 9 | 13 | 11.3 | 20.9 | 0.00 | 0.00 | 0.00 | 93 | 1012.7 |
| 20260505064512 | 9 | 29 | 6.4 | 20.9 | 0.00 | 0.00 | 0.00 | 93 | 1012.6 |
| 20260505064012 | 9 | 10 | 12.9 | 17.7 | 0.00 | 0.00 | 0.00 | 93 | 1012.6 |
| 20260505063512 | 9 | 323 | 12.9 | 16.1 | 0.00 | 0.00 | 0.00 | 93 | 1012.7 |
| 20260505063012 | 8 | 5 | 9.7 | 17.7 | 0.00 | 0.00 | 0.00 | 93 | 1012.5 |
| 20260505062512 | 8 | 5 | 3.2 | 17.7 | 0.00 | 0.00 | 0.00 | 92 | 1012.5 |
| 20260505061512 | 8 | 15 | 6.4 | 14.5 | 0.00 | 0.00 | 0.00 | 92 | 1012.5 |
| 20260505060512 | 8 | 12 | 4.8 | 11.3 | 0.00 | 0.00 | 0.00 | 92 | 1012.5 |
| 20260505055512 | 8 | 38 | 1.6 | 9.7 | 0.00 | 0.00 | 0.00 | 91 | 1012.6 |
| 20260505054512 | 7 | 291 | 1.6 | 8.0 | 0.00 | 0.00 | 0.00 | 91 | 1012.6 |
| 20260505054012 | 7 | 276 | 3.2 | 8.0 | 0.00 | 0.00 | 0.00 | 91 | 1012.7 |
| 20260505053512 | 7 | 335 | 3.2 | 6.4 | 0.00 | 0.00 | 0.00 | 91 | 1012.7 |
| 20260505053012 | 7 | 321 | 3.2 | 4.8 | 0.00 | 0.00 | 0.00 | 91 | 1012.7 |
| 20260505052512 | 7 | 334 | 0.0 | 4.8 | 0.00 | 0.00 | 0.00 | 90 | 1012.7 |
| 20260505052012 | 7 | 321 | 0.0 | 4.8 | 0.00 | 0.00 | 0.00 | 90 | 1012.7 |
| 20260505051512 | 7 | 20 | 0.0 | 1.6 | 0.00 | 0.00 | 0.00 | 90 | 1012.6 |
| 20260505051012 | 7 | 22 | 0.0 | 0.0 | 0.00 | 0.00 | 0.00 | 90 | 1012.7 |
| 20260505050512 | 7 | 22 | 0.0 | 0.0 | 0.00 | 0.00 | 0.00 | 90 | 1012.7 |
| 20260505041512 | 8 | 18 | 6.4 | 12.9 | 0.00 | 0.00 | 0.00 | 90 | 1012.9 |
| 20260505041011 | 8 | 9 | 4.8 | 12.9 | 0.00 | 0.00 | 0.00 | 90 | 1013.0 |
| 20260505040512 | 8 | 10 | 1.6 | 8.0 | 0.00 | 0.00 | 0.00 | 89 | 1013.0 |
| 20260505040012 | 8 | 5 | 4.8 | 8.0 | 0.00 | 0.00 | 0.00 | 89 | 1012.9 |
| 20260505035512 | 8 | 5 | 4.8 | 8.0 | 0.00 | 0.00 | 0.00 | 90 | 1012.9 |
| 20260505035012 | 8 | 5 | 3.2 | 8.0 | 0.00 | 0.00 | 0.00 | 89 | 1013.0 |
| 20260505034512 | 8 | 28 | 1.6 | 4.8 | 0.00 | 0.00 | 0.00 | 89 | 1013.0 |
| 20260505034012 | 8 | 28 | 0.0 | 4.8 | 0.00 | 0.00 | 0.00 | 89 | 1013.0 |
| 20260505033511 | 8 | 29 | 0.0 | 6.4 | 0.00 | 0.00 | 0.00 | 89 | 1012.9 |
| 20260505033012 | 8 | 29 | 0.0 | 8.0 | 0.00 | 0.00 | 0.00 | 89 | 1012.9 |
| 20260505032512 | 8 | 29 | 0.0 | 8.0 | 0.00 | 0.00 | 0.00 | 89 | 1012.9 |
| 20260505032012 | 8 | 24 | 4.8 | 8.0 | 0.00 | 0.00 | 0.00 | 88 | 1012.9 |
| 20260505031512 | 8 | 22 | 4.8 | 8.0 | 0.00 | 0.00 | 0.00 | 88 | 1012.9 |
| 20260505031011 | 8 | 22 | 8.0 | 8.0 | 0.00 | 0.00 | 0.00 | 88 | 1012.9 |
| 20260505030512 | 8 | 24 | 4.8 | 8.0 | 0.00 | 0.00 | 0.00 | 88 | 1012.8 |
| 20260505030012 | 8 | 28 | 3.2 | 6.4 | 0.00 | 0.00 | 0.00 | 87 | 1012.9 |
| 20260505025513 | 8 | 26 | 0.0 | 6.4 | 0.00 | 0.00 | 0.00 | 87 | 1012.9 |
| 20260505025011 | 8 | 26 | 1.6 | 6.4 | 0.00 | 0.00 | 0.00 | 87 | 1012.8 |
| 20260505024512 | 9 | 26 | 3.2 | 6.4 | 0.00 | 0.00 | 0.00 | 87 | 1012.8 |
| 20260505023512 | 9 | 26 | 0.0 | 3.2 | 0.00 | 0.00 | 0.00 | 87 | 1012.8 |
| 20260505023012 | 9 | 26 | 1.6 | 1.6 | 0.00 | 0.00 | 0.00 | 87 | 1012.8 |
| 20260505022512 | 9 | 26 | 0.0 | 0.0 | 0.00 | 0.00 | 0.00 | 87 | 1012.9 |
| 20260505022011 | 10 | 26 | 0.0 | 0.0 | 0.00 | 0.00 | 0.00 | 87 | 1013.0 |
| 20260505021512 | 10 | 26 | 0.0 | 0.0 | 0.00 | 0.00 | 0.00 | 87 | 1013.0 |
| 20260505021011 | 10 | 26 | 0.0 | 0.0 | 0.00 | 0.00 | 0.00 | 87 | 1012.9 |
| 20260505020511 | 10 | 26 | 0.0 | 0.0 | 0.00 | 0.00 | 0.00 | 87 | 1012.9 |
| 20260505020012 | 10 | 26 | 0.0 | 1.6 | 0.00 | 0.00 | 0.00 | 87 | 1012.8 |
| 20260505015512 | 10 | 26 | 0.0 | 3.2 | 0.00 | 0.00 | 0.00 | 87 | 1012.9 |
| 20260505014512 | 10 | 26 | 1.6 | 6.4 | 0.00 | 0.00 | 0.00 | 87 | 1013.0 |
| 20260505014011 | 10 | 26 | 3.2 | 6.4 | 0.00 | 0.00 | 0.00 | 87 | 1013.1 |
| 20260505013512 | 10 | 26 | 3.2 | 4.8 | 0.00 | 0.00 | 0.00 | 87 | 1013.1 |
| 20260505013012 | 10 | 26 | 1.6 | 4.8 | 0.00 | 0.00 | 0.00 | 87 | 1013.3 |
| 20260505012011 | 10 | 26 | 0.0 | 8.0 | 0.00 | 0.00 | 0.00 | 87 | 1013.3 |
| 20260505011512 | 10 | 22 | 3.2 | 6.4 | 0.00 | 0.00 | 0.00 | 87 | 1013.3 |
| 20260505010511 | 10 | 22 | 0.0 | 4.8 | 0.00 | 0.00 | 0.00 | 87 | 1013.5 |
| 20260505005511 | 11 | 22 | 0.0 | 0.0 | 0.00 | 0.00 | 0.00 | 87 | 1013.6 |
| 20260505005011 | 11 | 22 | 0.0 | 0.0 | 0.00 | 0.00 | 0.00 | 87 | 1013.6 |
| 20260505004512 | 11 | 22 | 0.0 | 0.0 | 0.00 | 0.00 | 0.00 | 87 | 1013.6 |
| 20260505004012 | 11 | 22 | 0.0 | 1.6 | 0.00 | 0.00 | 0.00 | 87 | 1013.6 |
| 20260505003511 | 11 | 22 | 0.0 | 1.6 | 0.00 | 0.00 | 0.00 | 87 | 1013.7 |
| 20260505002011 | 11 | 22 | 4.8 | 9.7 | 0.00 | 0.00 | 0.00 | 87 | 1013.5 |
| 20260505001011 | 11 | 30 | 1.6 | 9.7 | 0.00 | 0.00 | 0.00 | 87 | 1013.6 |
| 20260505000512 | 11 | 36 | 3.2 | 9.7 | 0.00 | 0.00 | 0.00 | 87 | 1013.6 |
| 20260505000011 | 11 | 38 | 6.4 | 9.7 | 0.00 | 0.00 | 0.00 | 87 | 1013.6 |
| 20260504235512 | 11 | 34 | 6.4 | 8.0 | 0.00 | 0.00 | 0.00 | 87 | 1013.6 |
| 20260504235011 | 11 | 34 | 8.0 | 8.0 | 0.00 | 0.00 | 0.00 | 87 | 1013.8 |
| 20260504234011 | 11 | 37 | 4.8 | 9.7 | 0.00 | 0.00 | 0.00 | 87 | 1013.8 |
| 20260504233512 | 11 | 31 | 4.8 | 9.7 | 0.00 | 0.00 | 0.00 | 87 | 1013.8 |
| 20260504232511 | 11 | 29 | 1.6 | 9.7 | 0.00 | 0.00 | 0.00 | 87 | 1013.8 |
| 20260504232011 | 11 | 27 | 1.6 | 9.7 | 0.00 | 0.00 | 0.00 | 87 | 1013.8 |
| 20260504231511 | 11 | 32 | 6.4 | 8.0 | 0.00 | 0.00 | 0.00 | 87 | 1013.8 |
| 20260504231011 | 11 | 29 | 4.8 | 8.0 | 0.00 | 0.00 | 0.00 | 87 | 1013.7 |
| 20260504230512 | 12 | 49 | 6.4 | 8.0 | 0.00 | 0.00 | 0.00 | 87 | 1013.7 |
| 20260504230011 | 12 | 36 | 3.2 | 8.0 | 0.00 | 0.00 | 0.00 | 87 | 1013.7 |
| 20260504225512 | 12 | 26 | 3.2 | 8.0 | 0.00 | 0.00 | 0.00 | 87 | 1013.7 |
| 20260504225011 | 12 | 36 | 3.2 | 9.7 | 0.00 | 0.00 | 0.00 | 87 | 1013.7 |
| 20260504224512 | 12 | 38 | 1.6 | 12.9 | 0.00 | 0.00 | 0.00 | 87 | 1013.7 |
| 20260504224011 | 12 | 53 | 3.2 | 12.9 | 0.00 | 0.00 | 0.00 | 87 | 1013.7 |
| 20260504223011 | 12 | 40 | 6.4 | 12.9 | 0.00 | 0.00 | 0.00 | 86 | 1013.8 |
| 20260504222512 | 12 | 47 | 1.6 | 12.9 | 0.00 | 0.00 | 0.00 | 87 | 1013.8 |
| 20260504221511 | 12 | 48 | 6.4 | 9.7 | 0.00 | 0.00 | 0.00 | 86 | 1013.9 |
| 20260504221012 | 12 | 33 | 8.0 | 9.7 | 0.00 | 0.00 | 0.00 | 86 | 1013.9 |
| 20260504220512 | 12 | 49 | 3.2 | 9.7 | 0.00 | 0.00 | 0.00 | 86 | 1014.0 |
| 20260504220011 | 12 | 42 | 3.2 | 8.0 | 0.00 | 0.00 | 0.00 | 86 | 1013.9 |
| 20260504215512 | 12 | 39 | 6.4 | 8.0 | 0.00 | 0.00 | 0.00 | 86 | 1013.9 |
| 20260504215011 | 12 | 44 | 8.0 | 8.0 | 0.00 | 0.00 | 0.00 | 86 | 1013.9 |
| 20260504214511 | 12 | 47 | 4.8 | 6.4 | 0.00 | 0.00 | 0.00 | 86 | 1014.0 |
| 20260504214011 | 12 | 59 | 3.2 | 8.0 | 0.00 | 0.00 | 0.00 | 86 | 1014.0 |
| 20260504213511 | 12 | 60 | 3.2 | 8.0 | 0.00 | 0.00 | 0.00 | 86 | 1014.0 |
| 20260504213011 | 12 | 59 | 1.6 | 4.8 | 0.00 | 0.00 | 0.00 | 86 | 1014.0 |
| 20260504212512 | 12 | 59 | 1.6 | 4.8 | 0.00 | 0.00 | 0.00 | 86 | 1014.0 |
| 20260504212011 | 12 | 59 | 4.8 | 8.0 | 0.00 | 0.00 | 0.00 | 86 | 1014.0 |
| 20260504211511 | 12 | 59 | 1.6 | 8.0 | 0.00 | 0.00 | 0.00 | 85 | 1014.0 |
| 20260504211011 | 12 | 59 | 3.2 | 8.0 | 0.00 | 0.00 | 0.00 | 85 | 1014.0 |
| 20260504210511 | 12 | 57 | 1.6 | 8.0 | 0.00 | 0.00 | 0.00 | 85 | 1014.0 |
| 20260504210011 | 12 | 55 | 0.0 | 8.0 | 0.00 | 0.00 | 0.00 | 85 | 1014.0 |
| 20260504205512 | 12 | 50 | 4.8 | 8.0 | 0.00 | 0.00 | 0.00 | 85 | 1014.0 |
| 20260504204511 | 12 | 46 | 3.2 | 6.4 | 0.00 | 0.00 | 0.00 | 85 | 1014.1 |
| 20260504204012 | 12 | 45 | 1.6 | 4.8 | 0.00 | 0.00 | 0.00 | 85 | 1014.0 |
| 20260504203511 | 12 | 45 | 1.6 | 6.4 | 0.00 | 0.00 | 0.00 | 84 | 1014.1 |
| 20260504203011 | 12 | 45 | 0.0 | 6.4 | 0.00 | 0.00 | 0.00 | 84 | 1014.0 |
| 20260504202511 | 12 | 44 | 3.2 | 6.4 | 0.00 | 0.00 | 0.00 | 84 | 1014.0 |
| 20260504202011 | 12 | 40 | 3.2 | 6.4 | 0.00 | 0.00 | 0.00 | 84 | 1014.0 |
| 20260504201511 | 12 | 36 | 4.8 | 6.4 | 0.00 | 0.00 | 0.00 | 84 | 1013.9 |
| 20260504201011 | 12 | 37 | 3.2 | 6.4 | 0.00 | 0.00 | 0.00 | 83 | 1013.9 |
| 20260504200511 | 12 | 37 | 4.8 | 6.4 | 0.00 | 0.00 | 0.00 | 83 | 1013.9 |
| 20260504195511 | 12 | 53 | 4.8 | 4.8 | 0.00 | 0.00 | 0.00 | 83 | 1013.8 |
| 20260504195011 | 12 | 65 | 1.6 | 4.8 | 0.00 | 0.00 | 0.00 | 82 | 1013.8 |
| 20260504194511 | 12 | 67 | 3.2 | 4.8 | 0.00 | 0.00 | 0.00 | 82 | 1013.8 |
| 20260504194011 | 12 | 67 | 1.6 | 4.8 | 0.00 | 0.00 | 0.00 | 82 | 1013.7 |
| 20260504193011 | 13 | 68 | 0.0 | 4.8 | 0.00 | 0.00 | 0.00 | 83 | 1013.6 |
| 20260504192511 | 13 | 68 | 0.0 | 6.4 | 0.00 | 0.00 | 0.00 | 83 | 1013.5 |
| 20260504192011 | 13 | 30 | 3.2 | 6.4 | 0.00 | 0.00 | 0.00 | 83 | 1013.4 |
| 20260504191511 | 13 | 29 | 1.6 | 8.0 | 0.00 | 0.00 | 0.00 | 83 | 1013.4 |
| 20260504191113 | 13 | 23 | 3.2 | 8.0 | 0.00 | 0.00 | 0.00 | 83 | 1013.4 |
| 20260504190011 | 13 | 43 | 0.0 | 8.0 | 0.00 | 0.00 | 0.00 | 83 | 1013.3 |
| 20260504185011 | 13 | 31 | 4.8 | 9.7 | 0.00 | 0.00 | 0.00 | 83 | 1013.4 |
| 20260504184011 | 13 | 19 | 6.4 | 11.3 | 0.00 | 0.00 | 0.00 | 83 | 1013.4 |
| 20260504183511 | 13 | 36 | 6.4 | 11.3 | 0.00 | 0.00 | 0.00 | 83 | 1013.4 |
| 20260504182511 | 13 | 29 | 4.8 | 9.7 | 0.00 | 0.00 | 0.00 | 84 | 1013.3 |
| 20260504182011 | 13 | 33 | 0.0 | 9.7 | 0.00 | 0.00 | 0.00 | 84 | 1013.3 |
| 20260504181511 | 13 | 319 | 3.2 | 8.0 | 0.00 | 0.00 | 0.00 | 84 | 1013.3 |
| 20260504181011 | 13 | 27 | 1.6 | 8.0 | 0.00 | 0.00 | 0.00 | 84 | 1013.2 |
| 20260504180011 | 13 | 23 | 4.8 | 11.3 | 0.00 | 0.00 | 0.00 | 84 | 1013.2 |
| 20260504175511 | 13 | 36 | 4.8 | 12.9 | 0.00 | 0.00 | 0.00 | 84 | 1013.2 |
| 20260504175011 | 13 | 36 | 4.8 | 12.9 | 0.00 | 0.00 | 0.00 | 84 | 1013.2 |
| 20260504174511 | 13 | 58 | 8.0 | 11.3 | 0.00 | 0.00 | 0.00 | 83 | 1013.1 |
| 20260504174011 | 13 | 355 | 4.8 | 14.5 | 0.00 | 0.00 | 0.00 | 83 | 1013.1 |
| 20260504173511 | 13 | 21 | 4.8 | 14.5 | 0.00 | 0.00 | 0.00 | 84 | 1013.2 |
| 20260504173011 | 13 | 44 | 14.5 | 16.1 | 0.00 | 0.00 | 0.00 | 83 | 1013.1 |
| 20260504172511 | 13 | 22 | 14.5 | 17.7 | 0.00 | 0.00 | 0.00 | 84 | 1013.1 |
| 20260504171511 | 13 | 44 | 14.5 | 14.5 | 0.00 | 0.00 | 0.00 | 85 | 1013.1 |
| 20260504171011 | 13 | 61 | 9.7 | 12.9 | 0.00 | 0.00 | 0.00 | 84 | 1013.2 |
| 20260504170511 | 13 | 53 | 9.7 | 12.9 | 0.00 | 0.00 | 0.00 | 85 | 1013.4 |